Find Starlink 4758

NORAD ID: 53820 Int'l Des: 2022-114 Owner: SPXS Country: US Constellation: starlink operational
LEOCIRCULAR

現在のビュー

3D地球を読み込み中...

About Starlink 4758

Starlink 4758 (NORAD 53820) is a starlink constellation satellite (v1.5) launched Sep 19, 2022 by SPXS of US. It operates in LEO, CIRCULAR orbit with a mass of 305.00 kg.

Starlink 4758について

説明を読み込み中...

次回通過

Passes for default location (London). Set your location on the main map for personalized predictions.

高度履歴

Loading altitude history...

軌道要素

1 53820U 22114C 26167.42300264 -.00000738 00000-0 -28270-4 0 9994
2 53820 53.1593 221.0192 0001079 73.2212 286.8898 15.08830954207738
Epoch: Jun 16, 2026 • Age: 14 hours

現在のステータス

高度 549.3 km
速度 7.59 km/s
衛星直下点 -29.38°S, 160.55°E
打ち上げ日 Sep 19, 2022
運用期間 3.7 years
タイプ internet

技術仕様

分類 Payload
質量 305.00 kg
乾燥質量 290.00 kg
総質量 305.00 kg
長さ 0.20 m
直径 2.80 m
スパン 9.00 m
形状 Box + pan
製造者 SPXS
バスタイプ Starlink
フェーズステータス In Orbit
所有者/国 SPXS/US

Most Searched